Regional Weather Roundup
Issued by NWS Newport/Morehead, NC

Current Version | Previous Version | Text Only | Print | Product List | Glossary On
Versions: 1 2 3 4 5 6 7 8 9 10 11 12 13 14 15 16 17 18 19 20 21 22 23 24 25 26 27 28 29 30 31 32 33 34 35 36 37 38 39 40 41 42 43 44 45 46 47 48 49 50
000
ASUS42 KMHX 212022
RWRMHX
WEATHER ROUNDUP FOR EASTERN NORTH CAROLINA
NATIONAL WEATHER SERVICE NEWPORT/MOREHEAD CITY NC
400 PM EDT THU AUG 21 2014

NOTE: "FAIR" INDICATES FEW OR NO CLOUDS BELOW 12,000 FEET
WITH NO SIGNIFICANT WEATHER AND/OR OBSTRUCTIONS TO VISIBILITY

NCZ015>017-031-032-045>047-102-103-212100-
NORTH COAST

CITY           SKY/WX    TMP DP  RH WIND       PRES   REMARKS
EDENTON        MOSUNNY   89  72  57 CALM      30.00F
ELIZABETH CITY CLOUDY    89  72  56 VRB5      30.00S
KITTY HAWK     MOCLDY    87  73  62 NW3       30.00S
MANTEO         MOSUNNY   84  75  74 S8        30.02R

$$

NCZ045>047-081-094-103-104-212100-
CENTRAL COAST

CITY           SKY/WX    TMP DP  RH WIND       PRES   REMARKS
FRISCO         MOSUNNY   84  76  76 SW8       30.02F
SWANQUARTER      N/A     88 N/A N/A S10       29.97S

$$

NCZ095-097-098-100-101-212100-
SOUTHERN COAST

CITY           SKY/WX    TMP DP  RH WIND       PRES   REMARKS
BEAUFORT       PTSUNNY   83  69  62 SW9       30.01F
CEDAR ISLAND     N/A     88 N/A N/A S8        30.06S
JACKSONVILLE   MOSUNNY   92  72  51 W8        30.01S
NEWPORT        NOT AVBL
PINEY ISLAND   PTCLDY    88  72  58 SW10      30.01F
WILMINGTON     PTSUNNY   89  70  53 SW15      30.02F


$$

NCZ011>013-027>030-043-044-078>080-089-090>093-098-212100-
COASTAL PLAIN

CITY           SKY/WX    TMP DP  RH WIND       PRES   REMARKS
AHOSKIE        PTSUNNY   87  70  56 CALM      30.01F
CLINTON        PTSUNNY   92  73  53 NW5       30.02F HX 100
ELIZABETHTOWN  MOSUNNY   94  67  40 W5        30.02F
GOLDSBORO      PTSUNNY   91  74  57 W7        30.00F
GREENVILLE     PTSUNNY   90  73  58 NW5       30.03F
HAVELOCK       PTSUNNY   86  73  65 SW7       30.02R
KENANSVILLE    PTSUNNY   91  69  47 W5        30.03F
KINSTON        PTSUNNY   91  72  52 NW8       30.01F
NEW BERN       MOSUNNY   94  70  45 W7        30.01F HX 100
RICHLANDS      MOSUNNY   93  70  46 W8        30.01S
ROANOKE RAPIDS NOT AVBL
ROCKY MOUNT    MOSUNNY   91  70  49 NW6       30.02F
WASHINGTON     MOSUNNY   89  73  59 NW5       30.01S
WHITEVILLE     MOSUNNY   86  73  63 SE12G18   30.04R

$$

AMZ130-135-150-152-154-156-158-170-250-252-270-ANZ085-086-088-633-658-670-212100-
MARINE OBSERVATIONS

STATION/POSITION TIME  TEMP    WIND        PRES    WAVE   SWELL
                       AIR SEA DIR/SP/G            HT/PER HT/PER
                 (UTC) (F)     (DEG/KT/KT) (MB)    (FT/S) (FT/S)
CHESAPEAKE LIGHT 2000   79     350/  2/  3 1017.1
BUOY 44014       2000   79 80  100/  6/  6 1016.4    2/ 7   2/ 7
DUCK             2000   84 78  140/  3/  4 1015.3
2E DUCK          2000                        N/A     2/ 7
OREGON INLET     2000   83 82  180/ 10/ 12 1016.2
BUOY 44095       2000      80                N/A     2/ 6
20E OREGON INLET NOT AVBL
HATTERAS CG      2000   83 83  200/  6/ 10 1016.9
DIAMOND BUOY     2000   81     200/  8/ 10 1016.6    3/ 9   3/ 9
CAPE LOOKOUT     2000   81     260/  9/ 10 1016.4
BEAUFORT LAB     2000   82 83  240/  3/  8 1016.0
30 SE NEW RIVER  2000   83 84  230/  8/  8 1016.0    2/ 5   2/ 5
5 SE WRIGHTSVILL 2000   80 83  260/ 10/ 12   N/A
BUOY 41002       1859   81 82  280/  8/ 10 1018.0    3/ 5   2/ 5
BUOY 41004       2000   83 85  230/  6/  8 1016.2    2/ 4   2/ 4

$$


USA.gov is the U.S. government's official web portal to all federal, state and local government web resources and services.